| time (UTC) | temp C | wind direction | speed KPH | gust KPH | rain 1hr cm | rain 24hr cm | rain mn cm | humidity % | barometer mb |
| 20260505190002 | 12 | 339 | 4.8 | 14.5 | 0.00 | 0.00 | 0.00 | 40 | 1010.1 |
| 20260505184502 | 12 | 325 | 8.0 | 19.3 | 0.00 | 0.00 | 0.00 | 37 | 1010.0 |
| 20260505183001 | 12 | 331 | 8.0 | 14.5 | 0.00 | 0.00 | 0.00 | 37 | 1010.0 |
| 20260505181601 | 12 | 282 | 8.0 | 16.1 | 0.00 | 0.00 | 0.00 | 39 | 1009.8 |
| 20260505180104 | 11 | 202 | 6.4 | 16.1 | 0.00 | 0.00 | 0.00 | 40 | 1009.8 |
| 20260505174612 | 11 | 273 | 6.4 | 17.7 | 0.00 | 0.00 | 0.00 | 40 | 1009.6 |
| 20260505173057 | 11 | 269 | 3.2 | 12.9 | 0.00 | 0.00 | 0.00 | 40 | 1009.6 |
| 20260505171557 | 11 | 355 | 6.4 | 16.1 | 0.00 | 0.00 | 0.00 | 38 | 1009.6 |
| 20260505170136 | 11 | 299 | 6.4 | 16.1 | 0.00 | 0.00 | 0.00 | 38 | 1009.6 |
| 20260505164556 | 11 | 292 | 6.4 | 17.7 | 0.00 | 0.00 | 0.00 | 36 | 1009.4 |
| 20260505163055 | 11 | 268 | 4.8 | 12.9 | 0.00 | 0.00 | 0.00 | 38 | 1009.3 |
| 20260505161601 | 11 | 262 | 4.8 | 16.1 | 0.00 | 0.00 | 0.00 | 41 | 1009.2 |
| 20260505153058 | 11 | 292 | 4.8 | 14.5 | 0.00 | 0.00 | 0.00 | 39 | 1009.2 |
| 20260505151552 | 10 | 290 | 4.8 | 11.3 | 0.00 | 0.00 | 0.00 | 44 | 1009.1 |
| 20260505124535 | 7 | 294 | 0.0 | 3.2 | 0.00 | 0.00 | 0.00 | 59 | 1009.3 |
| 20260505123053 | 7 | 347 | 0.0 | 3.2 | 0.00 | 0.00 | 0.00 | 63 | 1009.3 |
| 20260505121534 | 7 | 347 | 0.0 | 3.2 | 0.00 | 0.00 | 0.00 | 66 | 1009.4 |
| 20260505120031 | 7 | 347 | 0.0 | 3.2 | 0.00 | 0.00 | 0.00 | 63 | 1009.7 |
| 20260505114528 | 7 | 347 | 0.0 | 3.2 | 0.00 | 0.00 | 0.00 | 67 | 1009.0 |
| 20260505113034 | 7 | 347 | 0.0 | 4.8 | 0.00 | 0.00 | 0.00 | 64 | 1008.8 |
| 20260505111539 | 7 | 347 | 1.6 | 3.2 | 0.00 | 0.00 | 0.00 | 58 | 1008.4 |
| 20260505101515 | 8 | 347 | 1.6 | 4.8 | 0.00 | 0.00 | 0.00 | 58 | 1008.1 |
| 20260505100014 | 8 | 347 | 0.0 | 3.2 | 0.00 | 0.00 | 0.00 | 56 | 1007.5 |
| 20260505094510 | 8 | 347 | 0.0 | 3.2 | 0.00 | 0.00 | 0.00 | 56 | 1007.0 |
| 20260505093010 | 8 | 347 | 1.6 | 3.2 | 0.00 | 0.00 | 0.00 | 54 | 1006.4 |
| 20260505091506 | 9 | 347 | 1.6 | 4.8 | 0.00 | 0.00 | 0.00 | 53 | 1006.4 |
| 20260505090005 | 9 | 348 | 1.6 | 8.0 | 0.00 | 0.00 | 0.00 | 52 | 1006.9 |
| 20260505084505 | 9 | 336 | 3.2 | 6.4 | 0.00 | 0.00 | 0.00 | 52 | 1006.8 |
| 20260505083118 | 9 | 335 | 1.6 | 4.8 | 0.00 | 0.00 | 0.00 | 52 | 1006.0 |
| 20260505081558 | 9 | 335 | 1.6 | 6.4 | 0.00 | 0.00 | 0.00 | 52 | 1005.9 |
| 20260505080054 | 10 | 335 | 1.6 | 6.4 | 0.00 | 0.00 | 0.00 | 51 | 1004.9 |
| 20260505074551 | 10 | 338 | 3.2 | 8.0 | 0.00 | 0.00 | 0.00 | 52 | 1004.9 |
| 20260505073048 | 10 | 343 | 3.2 | 12.9 | 0.00 | 0.00 | 0.00 | 54 | 1004.8 |
| 20260505071544 | 10 | 286 | 1.6 | 6.4 | 0.00 | 0.00 | 0.00 | 54 | 1004.3 |
| 20260505070049 | 11 | 282 | 0.0 | 3.2 | 0.00 | 0.00 | 0.00 | 54 | 1003.8 |
| 20260505064556 | 11 | 282 | 0.0 | 4.8 | 0.00 | 0.00 | 0.00 | 53 | 1004.1 |
| 20260505063046 | 11 | 282 | 1.6 | 4.8 | 0.00 | 0.00 | 0.00 | 54 | 1004.0 |
| 20260505061541 | 11 | 282 | 0.0 | 0.0 | 0.00 | 0.00 | 0.00 | 58 | 1003.5 |
| 20260505060032 | 12 | 282 | 0.0 | 0.0 | 0.00 | 0.00 | 0.00 | 54 | 1003.5 |
| 20260505054529 | 12 | 282 | 0.0 | 4.8 | 0.00 | 0.00 | 0.00 | 47 | 1003.3 |
| 20260505053025 | 13 | 316 | 1.6 | 8.0 | 0.00 | 0.00 | 0.00 | 45 | 1003.0 |
| 20260505051523 | 13 | 344 | 3.2 | 8.0 | 0.00 | 0.00 | 0.00 | 45 | 1002.8 |
| 20260505041526 | 15 | 360 | 1.6 | 8.0 | 0.00 | 0.00 | 0.00 | 40 | 1002.3 |
| 20260505040016 | 15 | 360 | 3.2 | 14.5 | 0.00 | 0.00 | 0.00 | 40 | 1002.2 |
| 20260505034516 | 15 | 252 | 3.2 | 11.3 | 0.00 | 0.00 | 0.00 | 41 | 1002.0 |
| 20260505033018 | 15 | 282 | 1.6 | 6.4 | 0.00 | 0.00 | 0.00 | 42 | 1001.9 |
| 20260505031515 | 16 | 323 | 1.6 | 4.8 | 0.00 | 0.00 | 0.00 | 39 | 1002.0 |
| 20260505030015 | 16 | 269 | 1.6 | 9.7 | 0.00 | 0.00 | 0.00 | 38 | 1001.7 |
| 20260505024533 | 17 | 314 | 3.2 | 6.4 | 0.00 | 0.00 | 0.00 | 38 | 1001.3 |
| 20260505023013 | 17 | 312 | 3.2 | 14.5 | 0.00 | 0.00 | 0.00 | 38 | 1001.1 |
| 20260505021516 | 18 | 360 | 6.4 | 16.1 | 0.00 | 0.00 | 0.00 | 36 | 1001.2 |
| 20260505020014 | 19 | 261 | 6.4 | 14.5 | 0.00 | 0.00 | 0.00 | 35 | 1000.9 |
| 20260505014512 | 20 | 296 | 4.8 | 16.1 | 0.00 | 0.00 | 0.00 | 36 | 1000.4 |
| 20260505013019 | 20 | 256 | 4.8 | 19.3 | 0.00 | 0.00 | 0.00 | 37 | 999.9 |
| 20260505011511 | 21 | 301 | 3.2 | 17.7 | 0.00 | 0.00 | 0.00 | 37 | 999.1 |
| 20260505010010 | 22 | 316 | 6.4 | 14.5 | 0.00 | 0.00 | 0.00 | 37 | 998.2 |
| 20260505004513 | 22 | 269 | 4.8 | 9.7 | 0.00 | 0.00 | 0.00 | 40 | 997.6 |
| 20260505003013 | 22 | 286 | 3.2 | 11.3 | 0.00 | 0.00 | 0.00 | 43 | 997.3 |
| 20260505001508 | 23 | 277 | 3.2 | 9.7 | 0.00 | 0.00 | 0.00 | 40 | 997.1 |
| 20260505000024 | 23 | 235 | 3.2 | 16.1 | 0.00 | 0.00 | 0.00 | 39 | 996.7 |
| 20260504234507 | 23 | 274 | 4.8 | 12.9 | 0.00 | 0.00 | 0.00 | 39 | 996.8 |
| 20260504233006 | 23 | 254 | 3.2 | 9.7 | 0.00 | 0.00 | 0.00 | 39 | 996.8 |
| 20260504231515 | 24 | 300 | 1.6 | 11.3 | 0.00 | 0.00 | 0.00 | 39 | 996.9 |
| 20260504230004 | 25 | 260 | 6.4 | 11.3 | 0.00 | 0.00 | 0.00 | 37 | 997.0 |
| 20260504224502 | 25 | 252 | 4.8 | 17.7 | 0.00 | 0.00 | 0.00 | 35 | 997.4 |
| 20260504223002 | 25 | 169 | 8.0 | 25.7 | 0.00 | 0.00 | 0.00 | 32 | 997.3 |
| 20260504221609 | 25 | 296 | 8.0 | 19.3 | 0.00 | 0.00 | 0.00 | 33 | 997.3 |
| 20260504220100 | 26 | 234 | 8.0 | 17.7 | 0.00 | 0.00 | 0.00 | 33 | 997.3 |
| 20260504214558 | 26 | 273 | 12.9 | 24.1 | 0.00 | 0.00 | 0.00 | 33 | 997.4 |
| 20260504213056 | 26 | 274 | 11.3 | 24.1 | 0.00 | 0.00 | 0.00 | 31 | 997.6 |
| 20260504211557 | 26 | 272 | 12.9 | 25.7 | 0.00 | 0.00 | 0.00 | 31 | 997.7 |
| 20260504210108 | 26 | 215 | 6.4 | 16.1 | 0.00 | 0.00 | 0.00 | 32 | 997.8 |
| 20260504204600 | 26 | 257 | 8.0 | 19.3 | 0.00 | 0.00 | 0.00 | 32 | 998.1 |
| 20260504203050 | 26 | 226 | 6.4 | 24.1 | 0.00 | 0.00 | 0.00 | 32 | 998.3 |
| 20260504201549 | 25 | 196 | 9.7 | 27.4 | 0.00 | 0.00 | 0.00 | 32 | 998.5 |
| 20260504200044 | 26 | 263 | 12.9 | 25.7 | 0.00 | 0.00 | 0.00 | 32 | 998.5 |
| 20260504194600 | 25 | 290 | 9.7 | 20.9 | 0.00 | 0.00 | 0.00 | 35 | 998.7 |
| 20260504193041 | 25 | 244 | 4.8 | 19.3 | 0.00 | 0.00 | 0.00 | 33 | 998.8 |
| 20260504191546 | 25 | 316 | 11.3 | 20.9 | 0.00 | 0.00 | 0.00 | 30 | 998.9 |